QZS-2 (MICHIBIKI-2)

Last updated on Tue Oct 14 2025 00:02:49 GMT+0000 (Coordinated Universal Time)

1 42738U 17028A 25286.21655800 -.00000211 00000+0 00000+0 0 9995 2 42738 39.8146 246.7713 0745901 270.7558 82.0588 1.00253339 5155
UTC large
Height (km)
Speed (km/s)
/
Latitude / Longitude
Inclination (degrees)
Orbital Period (minutes)
Azimuth
Elevation
Range (km)
Doppler Factor

Next 0 passes for location: London (51.5072 / 0.1276)

Sorry there are no passes over London.